Regional Weather Roundup
Issued by NWS Upton, NY

Current Version | Previous Version | Text Only | Print | Product List | Glossary On
Versions: 1 2 3 4 5 6 7 8 9 10 11 12 13 14 15 16 17 18 19 20 21 22 23 24 25 26 27 28 29 30 31 32 33 34 35 36 37 38 39 40 41 42 43 44 45 46 47 48
000
ASUS41 KOKX 251105
RWROKX

REGIONAL WEATHER ROUNDUP
NATIONAL WEATHER SERVICE NEW YORK NY
600 AM EST THU DEC 25 2014

NOTE: "FAIR" INDICATES FEW OR NO CLOUDS BELOW 12,000 FEET WITH NO
SIGNIFICANT WEATHER AND/OR OBSTRUCTIONS TO VISIBILITY.

NYZ071-072-176-178-NJZ106-104-251200-
NEW YORK CITY METRO AREA


CITY           SKY/WX    TMP DP  RH WIND       PRES   REMARKS
CENTRAL PARK   LGT RAIN  56  47  71 W9G22     29.59R
LAGUARDIA APRT LGT RAIN  57  47  69 W14G25    29.57R
KENNEDY INTL   LGT RAIN  56  49  77 W13       29.59R
NEWARK/LIBERTY LGT RAIN  56  50  80 W10       29.59R
BRNX BOT. GARD   N/A     57  48  72 W9        29.57S
TETERBORO      LGT RAIN  56  30  37 W10G24    29.57R
$$

NYZ177-179-078>081-251200-
LONG ISLAND NEW YORK

CITY           SKY/WX    TMP DP  RH WIND       PRES   REMARKS
FARMINGDALE    LGT RAIN  55  53  93 SW7       29.58R
ISLIP          LGT RAIN  56  54  93 SW6       29.56R
SHIRLEY        LGT RAIN  54  53  97 SW7       29.59R FOG
WESTHAMPTON    LGT RAIN  55  53  93 SW17G28   29.61R FOG
MONTAUK POINT    N/A     57  55  93 SW12G24   29.57R
$$

NYZ052-065-067-251200-
HUDSON VALLEY

CITY           SKY/WX    TMP DP  RH WIND       PRES   REMARKS
WHITE PLAINS   LGT RAIN  56  49  77 W10G20    29.56R
NEWBURGH       LGT RAIN  52  45  76 W25G35    29.57R
MONTGOMERY     LGT RAIN  51  43  74 W9G17     29.56R
POUGHKEEPSIE   LGT RAIN  54  41  61 SW13G31   29.57R
ALBANY         CLOUDY    53  40  61 W16G24    29.51R
$$

NJZ001-105-106-008-010-013-015-019>022-104-251200-
NEW JERSEY

CITY           SKY/WX    TMP DP  RH WIND       PRES   REMARKS
NEWARK/LIBERTY LGT RAIN  56  50  80 W10       29.59R
TETERBORO      LGT RAIN  56  30  37 W10G24    29.57R
CALDWELL       LGT RAIN  52  43  71 W14G21    29.61R
MORRISTOWN     RAIN      55  46  71 W9G18     29.59R
SOMERVILLE     LGT RAIN  51  43  74 W12G20    29.60R
SUSSEX         LGT RAIN  48  41  76 VRB6G17   29.60R
ANDOVER        NOT AVBL
TRENTON        LGT RAIN  50  45  83 NW16G24   29.64R
MILLVILLE      LGT RAIN  51  48  89 W10       29.65R
ATLANTIC CITY  LGT RAIN  53  51  93 VRB5      29.63F
WRIGHTSTOWN    LGT RAIN  53  51  92 W10       29.61R
TOMS RIVER     CLOUDY    55  52  88 CALM      29.61F
BELMAR         CLOUDY    54  46  76 W10       29.61S
$$

PAZ047>061-062-071-251200-
EASTERN PENNSYLVANIA

CITY           SKY/WX    TMP DP  RH WIND       PRES   REMARKS
PHILADELPHIA   LGT RAIN  53  45  74 W17G23    29.68R
ALLENTOWN      LGT RAIN  46  39  76 W10G18    29.65R
SCRANTON       CLOUDY    43  38  82 SW5       29.61S
$$

CTZ002-004>006-009-010-012-RIZ004-006-007-MAZ004-011-015-251200-
SOUTHERN NEW ENGLAND
 IN CT

CITY           SKY/WX    TMP DP  RH WIND       PRES   REMARKS
BRADLEY INTL   LGT RAIN  55  53  93 S10       29.49R
HARTFORD       LGT RAIN  56  55  97 S12       29.50R
DANBURY        LGT RAIN  55  45  68 W12G22    29.58R
WTRBRY/OXFORD  LGT RAIN  57  54  88 SW6       29.53R FOG
BRIDGEPORT     LGT RAIN  51  51 100 SW8       29.55R VSB 1
MERIDEN        RAIN      55  54  96 S10       29.53R FOG
NEW HAVEN      LGT RAIN  55  52  89 SW7       29.55R FOG
CHESTER        RAIN      55  55 100 SW7       29.57R
GROTON         CLOUDY    52  52 100 SW13      29.55R FOG
WILLIMANTIC    LGT RAIN  60  57  89 SW7       29.52R

 IN RI

CITY           SKY/WX    TMP DP  RH WIND       PRES   REMARKS
PROVIDENCE     CLOUDY    59  57  93 SW14      29.53S
BLOCK ISLAND   CLOUDY    55  54  94 SW21G26   29.55S
WESTERLY       CLOUDY    54  54 100 W9        29.56R FOG

 IN MA

CITY           SKY/WX    TMP DP  RH WIND       PRES   REMARKS
BOSTON         LGT RAIN  58  58 100 S13       29.48R
WORCESTER      LGT RAIN  58  57  97 SW17G24   29.50R
WESTFIELD      LGT RAIN  43  42  97 CALM      29.48R VSB 1/2
PROVINCETOWN   CLOUDY    57  54  88 SW14G20   29.54R
NANTUCKET      RAIN      58  57  97 SW21      29.59S FOG
$$

ANZ330-335-338-340-345-350-353-355-251200-
COASTAL MARINE OBSERVATIONS


STATION/POSITION TIME  SKY/WX   TEMP    WIND        PRES    VSBY  WAVE
                                AIR SEA DIR/SP/G                  HT/PER
                 (UTC)          (F)     (DEG/KT/KT) (MB)    (MI)  (FT/S)
NY HARB ENTRANCE 1100            52 47  260/  8/ 10 1003.5          5/ 8
4S FIRE IS       1100               47                N/A           8/ 8
20S FIRE ISLAND  1000            54 50              1001.0          7/ 7
23SW MTP         1100                                 N/A           8/ 7
HUDSON CANYON    1100            59 56  220/ 19/ 23 1002.4          9/ 8
EXECUTION ROCKS  1100            52 42  270/ 14/ 23   N/A
WESTERN LI SOUND 1100            49     240/ 10/ 12   N/A           0
CENTRAL LI SOUND 1000            50 44  210/ 14/ 16   N/A           2/ 3
EASTERN LI SOUND NOT AVBL
ROBBINS REEF     1100            56                 1000.5
$$


>>>>>>>>>>>>>>>>>>>>>>>>>>>> KEY <<<<<<<<<<<<<<<<<<<<<<<<<<<
>                                                          <
>     SKY/WX - SKY CONDITION/PRESENT WEATHER               <
>     TMP    - TEMPERATURE IN FAHRENHEIT                   <
>     DP     - DEWPOINT IN FAHRENHEIT                      <
>     RH     - RELATIVE HUMIDITY IN PERCENT                <
>     WIND   - DIRECTION AND SPEED IN MPH                  <
>     PRES   - MEAN SEA LEVEL PRESSURE IN INCHES OF HG     <
>     WCI    - WIND CHILL INDEX                            <
>     VSB    - VISIBILITY IN MILES                         <
>     HX     - HEAT INDEX                                  <
>     TC     - TEMPERATURE IN CELSIUS                      <
>     VRB    - VARIABLE WIND DIRECTION                     <
>                                                          <
>>>>>>>>>>>>>>>>>>>>>>>>>>>> KEY <<<<<<<<<<<<<<<<<<<<<<<<<<<




USA.gov is the U.S. government's official web portal to all federal, state and local government web resources and services.